Regional Weather Roundup
Issued by NWS

Home | Current Version | Previous Version | Graphics & Text | Print | Product List | Glossary On
Versions: 1 2 3 4 5 6 7 8 9 10 11 12 13 14 15 16 17 18 19 20 21 22 23 24 25 26 27 28 29 30 31 32 33 34 35 36 37 38 39 40 41 42 43 44 45 46 47 48 49 50
174
ASUS45 KTFX 221210
RWRMT
MONTANA REGIONAL WEATHER ROUNDUP
NATIONAL WEATHER SERVICE GREAT FALLS MT
600 AM MDT FRI SEP 22 2017

NOTE: "FAIR" INDICATES FEW OR NO CLOUDS BELOW 12000 FEET WITH NO
SIGNIFICANT WEATHER AND/OR OBSTRUCTIONS TO VISIBILITY.

MTZ001>007-043-221300-
WEST OF THE DIVIDE

CITY           SKY/WX    TMP DP  RH WIND       PRES   REMARKS
KALISPELL      PTCLDY    42  30  62 N13       29.99R
MISSOULA       CLOUDY    40  37  89 W6        29.96R
BUTTE          CLOUDY    35  29  78 N10       29.88F WCI  27
MULLAN PASS    CLOUDY    31  29  92 VRB3      29.93S FOG
ANACONDA         N/A     34  28  80 N13G18    29.93S WCI  25
DEER LODGE       N/A     37  27  65 N13       29.97R WCI  29
EUREKA           N/A     39  36  87 CALM      30.04S
HAMILTON         N/A     43  34  70 NW13      29.92R
LIBBY            N/A     36  36 100 CALM      30.02S
PLAINS           N/A     40  36  86 CALM      29.99S
$$

MTZ008-052>055-221300-
SOUTHWEST MONTANA

CITY           SKY/WX    TMP DP  RH WIND       PRES   REMARKS
BOZEMAN        CLOUDY    38  36  92 W6        29.88S
DILLON         LGT SNOW  35  32  88 NE15      29.84S WCI  25
W YELLOWSTONE  LGT SNOW  32  32 100 MISG      29.82R
ENNIS          CLOUDY    36  32  87 NW10      29.87R WCI  28
THREE FORKS      N/A     39  35  85 N9        29.90S
TWIN BRIDGES     N/A     36  30  79 N18       29.84R WCI  26
$$

MTZ009-010-012-014-046-048-049-054-221300-
EAST SLOPES AND CENTRAL MONTANA

CITY           SKY/WX    TMP DP  RH WIND       PRES   REMARKS
CUT BANK       CLOUDY    31  30  96 N9        30.05S WCI  23
GREAT FALLS    LGT SNOW  34  32  92 N8        30.07R FOG     WCI  27
MALMSTROM AFB  DRIZZLE   36  35  96 N10       30.07R WCI  28
HELENA         CLOUDY    38  31  76 N13       29.98R WCI  30
BOWMANS CRNR   LGT SNOW  31  31  99 N15       30.03R WCI  20
CHOTEAU          N/A     36  30  80 N12       30.08R WCI  27
FAIRFIELD      CLOUDY    35  30  83 N8        30.06R WCI  29
POWER          CLOUDY    35  31  87 N10       30.05S WCI  27
RAYNESFORD     FLURRIES  33  33 100 CALM      30.04R
ULM            FLURRIES  33  33 100 N8        30.06R WCI  26
$$

MTZ011-013-016-021-045-047-050-051-221300-
NORTH CENTRAL MONTANA

CITY           SKY/WX    TMP DP  RH WIND       PRES   REMARKS
HAVRE          CLOUDY    36  33  89 W3        30.07S
LEWISTOWN      CLOUDY    33  33 100 E6        30.01S WCI  28
N BAR RANCH    LGT SNOW  32  32 100 CALM      30.04R VSB 1
CHINOOK          N/A     37  34  87 W3        30.07S
DENTON         LGT RAIN  36  35  95 N7        30.01R WCI  30
GEYSER         LGT RAIN  34  33  99 NE6       30.04R WCI  29
GRASS RANGE    LGT SNOW  32  32 100 CALM      30.00F
JUDITH GAP     MOCLDY    33  33  97 N12G18    29.98S WCI  25
WINIFRED       LGT RAIN  34  34  99 E8        30.02F WCI  27
$$

MTZ017>020-022>027-061-062-221300-
NORTHEAST MONTANA

CITY           SKY/WX    TMP DP  RH WIND       PRES   REMARKS
GLASGOW        CLOUDY    44  36  73 NW8       30.01S
JORDAN           N/A     43  39  86 NW13      30.00R
SIDNEY         CLOUDY    47  38  71 N8        29.95R
WOLF POINT     CLOUDY    46  38  73 NW7       29.99R
MALTA          CLOUDY    41  36  81 CALM      30.05F
POPLAR           N/A     45  37  76 N6        29.98S
SCOBEY           N/A     42  31  65 CALM      29.99R
$$

MTZ028>42-056>058-221300-
SOUTHCENTRAL AND SOUTHEAST MONTANA

CITY           SKY/WX    TMP DP  RH WIND       PRES   REMARKS
BAKER          CLOUDY    50  35  56 N13       29.89R
BILLINGS       LGT RAIN  39  38  96 NE13      29.97S WCI  31
LIVINGSTON     LGT SNOW  33  33 100 E21G26    29.92F FOG     WCI  21
MILES CITY     CLOUDY    48  36  63 NE14      29.94R
BIG TIMBER     CLOUDY    32  32 100 NE13      29.99S FOG     WCI  22
HARLOWTON      LGT SNOW  32  32  98 MISG      30.00R VSB 3/4
LAUREL           N/A     39  37  93 NE13      29.98S WCI  32
$$

REGIONAL REPORTS...DAKOTAS

CITY           SKY/WX    TMP DP  RH WIND       PRES   REMARKS
WILLISTON      CLOUDY    46  39  76 N12       29.93F
MINOT          CLOUDY    47  40  76 N13       29.91F
DICKINSON      CLOUDY    50  37  61 NE20G29   29.85F
BEACH          CLOUDY    46  37  71 N12       29.93S
CROSBY         CLOUDY    43  41  93 N8        29.96S
TIOGA          MOCLDY    45  41  87 NE9       29.95S
WATFORD CITY   MOCLDY    46  39  76 NE7       29.92S
BISMARCK       CLOUDY    55  42  61 NE16G25   29.81S
GRAND FORKS    PTCLDY    55  52  89 N14       29.80R
FARGO          MOCLDY    65  65 100 N9        29.74S
BUFFALO SD       N/A     52  38  58 NE20      29.75S
RAPID CITY     CLOUDY    52  37  58 N26G36    29.77
$$

REGIONAL REPORTS...WYOMING/IDAHO/WASHINGTON

CITY           SKY/WX    TMP DP  RH WIND       PRES   REMARKS
GILLETTE       CLOUDY    41  34  76 N13       29.86R
SHERIDAN       CLOUDY    43  40  89 NW10      29.94R
BUFFALO WY     CLOUDY    43  33  68 NW16G23   29.92R
CODY           FLURRIES  33  32  96 N7        29.93F WCI  27
IDAHO FALLS    CLOUDY    40  40 100 S7        29.83F
SALMON         LGT RAIN  42  37  82 CALM      29.85S
BOISE          CLOUDY    44  38  79 NW14      29.87R
SPOKANE        PTCLDY    38  38 100 NE5       29.98S
$$

REGIONAL REPORTS...ALBERTA

CITY           SKY/WX    TMP DP  RH WIND       PRES   REMARKS
EDMONTON       CLOUDY    37  37 100 N2        30.14S
CALGARY        LGT SNOW  36  34  93 N8        30.11  WCI  29
LETHBRIDGE     LGT RAIN  36  36 100 NW9       30.09F WCI  29
MEDICINE HAT   MOCLDY    39  36  87 NW7       30.07S
$$

REGIONAL REPORTS...SASKATCHEWAN

CITY           SKY/WX    TMP DP  RH WIND       PRES   REMARKS
SWIFT CURRENT  CLOUDY    37  36  93 NW7       30.02S
REGINA         MOCLDY    36  34  93 W5        30.01R
SASKATOON      CLOUDY    39  37  93 N6        30.06R
$$




USA.gov is the U.S. government's official web portal to all federal, state and local government web resources and services.